Location: ????????
(55.0559°N, 39.1270°E)
Time: 00:42:43
(UTC+00:00)

Cosmos 1939 Rocket - Pass Details

Date: 15 November 2025
Orbit: 491 x 528 km, 97.5° (Epoch: 12 December)

Event Time Altitude Azimuth Distance (km) Brightness Sun altitude
Rises 03:18:41 0° 6° (N) 2,690 6.3 -13.6°
Reaches altitude 10° 03:21:05 10° 353° (N) 1,792 5.2 -13.3°
Maximum altitude 03:24:13 24° 299° (WNW) 1,124 3.8 -12.8°
Enters shadow 03:26:01 17° 260° (W) 1,371 4.3 -12.6°
